[ hide orbit diagram ]
For accurate long-term ephemerides, please instead use our Horizons system.This orbit viewer was implemented using two-body methods, and hence should not be used for determining accurate long-term trajectories (over several years or decades) or planetary encounter circumstances.
Orbital Elements at Epoch 2457908.5 (2017-Jun-04.0) TDB
Reference: JPL 5 (heliocentric ecliptic J2000)
Element | Value | Uncertainty (1-sigma) | Units |
e | .5811796540391507 | 4.2837e-05 | |
a | 5.573290416193654 | 0.00085116 | au |
q | 2.334207420250512 | 0.00012049 | au |
i | 4.279069229180887 | 0.00020376 | deg |
node | 354.3283551657214 | 0.0024207 | deg |
peri | 253.2094774904487 | 0.018115 | deg |
M | .2628799130730206 | 0.0034716 | deg |
tp | 2457904.990697225516 (2017-May-31.49069723) | 0.047095 | TDB |
period | 4805.802710621399 13.16 | 1.1009 0.003014 | d yr |
n | .07490944212178266 | 1.716e-05 | deg/d |
Q | 8.812373412136797 | 0.0013458 | au |
|
| | Orbit Determination Parameters
Additional Information
|
[ show covariance matrix ]
[ show close-approach data ]
Alternate Designations
Perihelion Year (est.) | New-Style Desig | Roman Numeral | Year/ Letter | 2017.4 | P/2017 K3 | | |
|
|